Wind_Speed
42 42 43 44 44 44 45 45 45 46 47 47 46 46 46 46 47 47 47 47 47 47 47 46 47 46 46 46 46 46 46 46 45 44 43 43 43 42 42 42 43 43 43
43 43 43 44 44 44 45 46 46 46 47 47 47 47 47 47 47 47 48 47 47 48 48 48 48 48 47 47 48 48 47 47 47 46 46 45 45 44 44 44 44 45 46
43 43 43 44 44 45 45 46 46 47 47 47 47 47 47 47 47 47 48 48 49 49 50 49 49 49 49 49 49 49 49 48 48 48 48 47 47 46 46 47 47 47 47
42 42 43 44 45 46 46 47 48 48 48 48 47 47 47 47 48 48 48 49 50 51 51 50 50 50 50 50 50 49 50 50 50 49 49 49 48 49 48 49 49 49 49
41 41 42 44 45 45 46 47 47 48 49 49 48 48 48 48 49 49 50 50 50 51 51 51 52 52 52 51 51 51 51 51 51 51 50 50 50 50 51 50 50 50 51
40 40 41 43 43 45 46 47 47 48 50 50 49 49 49 49 50 50 50 51 52 52 52 53 53 54 53 53 53 53 53 53 53 53 52 52 53 52 52 52 52 51 52
39 40 41 41 42 44 45 46 47 48 50 50 50 50 50 50 51 51 52 52 52 53 54 54 54 55 55 55 55 55 54 54 55 55 53 54 54 54 54 54 53 52 51
38 39 40 40 41 42 43 44 45 47 50 51 51 51 52 52 52 52 53 53 54 54 55 55 56 56 56 57 58 56 56 56 56 56 55 55 55 55 55 54 54 53 51
38 39 39 40 40 40 41 43 44 45 48 49 50 51 52 53 53 53 53 54 55 55 55 56 56 57 57 58 58 58 57 57 57 56 56 56 55 55 55 55 55 54 53
38 38 38 39 40 41 41 42 42 44 46 48 50 50 51 52 54 54 54 54 54 54 55 56 58 58 58 59 58 58 58 58 57 55 56 56 55 55 55 55 55 55 55
38 38 38 38 39 40 40 41 43 44 46 47 48 49 50 51 53 54 55 55 55 55 55 56 57 59 59 59 59 59 59 58 58 57 56 56 56 56 56 56 55 55 55
40 39 38 38 38 39 40 41 42 44 45 46 47 49 49 49 51 53 54 55 56 56 56 56 57 58 58 59 59 60 60 60 59 58 57 57 57 57 57 57 56 56 56
40 39 38 38 39 39 40 41 43 44 44 45 46 47 48 49 50 51 53 54 55 56 56 57 57 57 57 58 58 59 60 60 60 59 58 58 58 58 57 57 56 57 56
40 39 39 39 39 40 40 41 43 44 45 44 45 46 47 48 49 50 50 52 53 55 56 56 56 56 57 57 57 58 58 59 60 59 58 58 58 58 58 57 56 56 56
39 39 39 39 39 39 39 41 43 44 44 44 44 45 47 48 49 50 50 51 52 53 54 54 55 55 56 56 56 56 57 58 59 58 58 58 58 57 57 57 56 57 56
39 39 38 38 38 39 39 41 42 43 43 44 44 45 46 47 48 49 49 50 50 51 52 53 53 53 54 54 55 55 55 56 57 57 57 56 56 56 56 56 55 56 56
39 39 39 38 38 38 39 41 41 41 41 42 43 44 45 47 48 49 49 49 50 50 50 51 52 52 52 53 53 54 54 55 56 56 56 55 55 55 55 55 55 54 53
39 38 38 38 38 38 39 40 40 40 40 40 40 41 43 44 45 46 47 47 47 48 49 49 50 50 50 51 52 53 53 54 54 54 55 54 53 54 54 54 54 54 52
39 38 39 39 38 38 38 38 38 38 39 39 38 39 41 42 43 44 44 44 45 46 46 47 49 49 49 50 50 51 52 52 52 52 53 53 53 53 53 53 53 53 53
39 38 38 38 38 37 36 35 35 36 36 36 37 38 39 39 40 41 42 43 44 44 45 46 46 48 48 49 50 50 51 50 50 50 51 51 51 51 52 52 52 52 52
38 38 38 38 37 36 35 35 34 35 35 36 37 37 38 39 40 40 42 43 43 44 45 45 46 46 47 47 48 48 48 48 48 49 50 50 51 51 50 51 52 53 53
37 38 37 37 36 36 35 34 33 34 35 35 36 37 37 38 38 39 40 42 43 44 44 44 45 45 45 45 45 45 46 46 47 47 47 48 49 50 49 50 51 52 52
37 36 36 35 34 34 33 32 31 32 32 34 35 36 37 37 37 37 38 40 41 42 42 42 43 43 43 43 43 43 44 45 45 45 46 47 47 48 49 49 50 50 50
35 35 35 35 34 33 32 31 31 31 32 33 34 35 36 37 37 37 38 39 39 39 40 40 40 41 42 42 43 43 43 43 43 43 44 45 45 46 47 47 47 47 48
32 32 32 32 32 30 30 31 32 32 32 33 33 33 34 36 36 37 38 38 38 38 38 39 40 40 40 41 41 42 42 42 41 41 41 42 43 43 44 44 45 45 46
31 31 31 30 30 29 30 31 32 33 33 33 33 33 33 34 35 36 36 36 36 36 36 36 37 38 38 39 40 40 40 40 40 40 40 40 41 41 42 41 42 43 44
Wind_Direction
264 264 265 265 265 265 265 264 262 262 261 259 258 257 257 257 256 256 256 255 255 255 254 253 252 252 252 252 252 252 253 255 256 257 258 258 259 261 262 262 263 263 262
265 265 266 267 266 265 265 263 261 260 260 259 257 256 257 258 257 257 256 255 254 255 255 254 253 251 252 253 252 252 253 255 256 257 258 258 259 260 261 262 262 263 263
266 266 266 267 267 265 264 263 262 259 258 257 257 256 257 257 257 257 256 255 255 255 254 254 252 252 252 253 254 253 254 255 256 257 258 259 260 260 261 262 262 263 263
268 267 267 266 266 265 264 263 262 260 258 256 256 256 256 255 256 256 256 255 255 254 253 253 254 253 253 253 254 254 254 256 257 258 258 259 261 261 261 262 263 263 264
271 269 268 267 267 266 264 262 260 260 258 256 256 257 257 256 256 256 256 255 255 255 255 255 255 255 254 254 255 255 256 256 258 258 259 260 261 262 263 263 263 263 264
274 271 270 271 269 267 265 263 260 260 260 258 256 257 257 257 256 256 256 256 256 256 256 256 256 256 255 256 256 256 256 257 258 259 259 261 262 263 264 264 264 264 264
275 273 272 273 271 269 267 265 263 261 260 258 257 257 257 257 257 256 256 256 257 257 257 257 256 256 256 257 257 257 257 258 259 259 260 261 262 263 264 264 265 264 264
278 275 273 273 273 270 268 266 265 263 261 258 257 257 257 257 257 257 257 257 258 258 258 258 258 257 257 257 257 258 258 259 259 260 260 261 261 262 263 263 264 264 264
280 276 273 273 275 272 270 268 267 264 261 259 259 259 259 258 258 258 258 258 259 259 259 259 259 259 259 258 258 258 258 259 259 259 260 260 260 261 262 263 263 264 264
278 276 274 274 275 274 272 269 268 266 263 261 261 260 259 258 258 258 259 259 259 260 260 260 260 260 260 260 259 258 257 257 258 259 259 259 260 261 262 262 263 264 264
280 277 276 276 277 275 272 271 270 267 265 264 263 261 259 258 258 258 259 260 260 261 261 261 262 262 262 262 260 259 258 257 257 258 259 260 260 260 261 262 263 264 265
281 279 278 278 278 276 274 274 272 269 267 266 264 262 261 259 259 260 261 261 261 261 261 262 262 263 263 262 262 260 258 257 258 258 259 259 260 261 262 263 263 264 265
281 281 280 279 278 278 276 275 273 269 268 268 266 264 263 261 261 261 262 262 262 262 262 262 262 263 263 262 262 260 259 258 258 259 259 260 260 261 262 263 263 264 264
282 281 281 280 278 278 278 277 274 272 270 269 268 266 265 263 263 263 264 264 264 263 263 263 263 263 262 262 262 261 260 259 258 258 259 260 261 261 262 263 263 263 264
283 282 281 280 278 278 279 278 276 274 271 270 270 267 265 264 264 264 265 266 266 265 264 264 263 263 262 262 262 261 260 260 259 259 259 261 261 261 263 263 263 264 264
285 283 283 282 281 280 278 278 277 275 271 270 270 269 267 266 266 266 267 267 266 265 264 264 263 263 262 262 262 261 261 260 260 259 259 260 261 261 262 263 264 264 264
287 285 284 284 283 281 279 279 278 276 273 271 270 269 269 269 269 268 268 268 266 265 265 264 264 263 262 262 261 261 261 261 260 259 259 259 260 261 262 262 263 264 264
289 287 286 285 284 282 281 278 277 276 274 272 271 271 271 270 269 269 269 268 267 266 266 266 265 263 262 262 261 261 261 261 261 260 259 259 260 261 262 261 261 262 262
290 288 288 287 285 283 282 278 277 275 275 273 272 273 272 272 270 270 270 269 267 267 267 267 265 264 263 262 262 262 261 261 261 260 259 259 259 261 261 261 261 262 261
290 290 289 289 287 284 282 280 278 276 276 275 275 274 274 273 272 272 272 270 269 267 267 267 266 264 263 263 262 262 261 261 261 260 260 260 260 260 261 261 262 262 260
291 290 289 289 287 285 282 281 279 277 278 278 277 276 276 276 276 274 272 270 270 269 268 267 266 264 264 262 262 261 261 261 260 260 260 260 260 260 261 261 262 262 260
290 290 289 288 287 285 283 282 280 279 280 280 280 279 278 278 278 276 274 273 272 271 270 268 266 265 264 263 261 260 260 261 261 261 260 260 260 259 260 261 262 261 259
290 289 288 288 287 286 285 283 282 282 283 283 283 282 281 280 279 278 277 276 274 272 270 269 268 266 264 262 261 260 261 262 262 261 261 261 260 259 260 261 261 260 258
291 289 288 287 286 286 285 284 284 285 285 286 285 283 283 282 280 280 280 279 276 274 272 270 268 266 264 262 260 260 261 262 262 262 261 261 260 260 260 260 260 258 257
292 291 290 288 287 284 285 286 287 288 288 289 287 285 285 285 283 283 282 280 279 278 274 271 269 265 263 261 260 261 260 261 262 262 262 261 260 259 259 259 258 257 256
294 293 293 291 288 286 287 288 289 290 290 290 290 288 287 287 286 285 285 284 282 280 276 273 269 266 264 261 260 260 259 259 261 261 261 261 260 259 259 258 258 258 256
Height
5678 5679 5680 5681 5682 5682 5683 5683 5684 5684 5685 5687 5688 5690 5692 5693 5695 5697 5699 5701 5703 5706 5708 5711 5714 5716 5719 5722 5725 5728 5730 5733 5735 5737 5740 5742 5743 5745 5747 5749 5750 5752 5753
5666 5667 5667 5668 5669 5669 5669 5670 5670 5671 5672 5674 5676 5678 5679 5681 5683 5684 5686 5688 5691 5693 5696 5698 5701 5704 5707 5710 5712 5715 5718 5721 5723 5725 5728 5730 5733 5734 5736 5737 5739 5740 5742
5653 5653 5654 5654 5655 5655 5656 5656 5656 5657 5659 5660 5662 5664 5666 5668 5670 5671 5673 5675 5677 5679 5682 5685 5688 5691 5694 5697 5699 5702 5705 5708 5710 5712 5715 5717 5720 5722 5724 5725 5727 5728 5729
5641 5641 5640 5640 5641 5641 5642 5642 5643 5643 5645 5647 5649 5651 5653 5655 5657 5658 5660 5662 5663 5666 5668 5671 5674 5677 5680 5683 5685 5688 5691 5694 5696 5699 5701 5703 5705 5708 5711 5713 5713 5714 5716
5628 5628 5628 5627 5627 5627 5628 5628 5629 5630 5631 5633 5635 5638 5640 5642 5643 5645 5646 5648 5650 5652 5654 5657 5659 5662 5665 5668 5671 5674 5677 5680 5682 5685 5687 5689 5691 5693 5695 5698 5700 5700 5701
5617 5616 5615 5615 5614 5614 5614 5615 5615 5617 5618 5619 5622 5624 5626 5628 5629 5631 5633 5635 5636 5638 5640 5643 5645 5648 5651 5654 5657 5660 5663 5665 5668 5670 5672 5674 5676 5678 5679 5682 5685 5686 5687
5606 5604 5604 5603 5602 5601 5602 5601 5602 5603 5604 5606 5608 5610 5612 5613 5615 5617 5619 5621 5622 5624 5626 5628 5631 5633 5636 5639 5641 5644 5647 5650 5652 5654 5656 5658 5660 5662 5663 5665 5667 5669 5671
5595 5593 5592 5591 5590 5589 5589 5589 5589 5590 5591 5593 5595 5596 5598 5599 5601 5602 5604 5606 5608 5610 5612 5614 5616 5618 5621 5623 5626 5629 5632 5634 5636 5638 5640 5642 5644 5645 5647 5649 5651 5653 5656
5584 5582 5581 5579 5578 5578 5577 5577 5576 5577 5578 5579 5581 5582 5583 5584 5586 5588 5590 5591 5594 5595 5597 5599 5601 5603 5605 5607 5609 5612 5615 5618 5620 5622 5624 5626 5628 5629 5631 5633 5634 5637 5639
5573 5571 5570 5568 5567 5566 5565 5564 5564 5564 5565 5566 5567 5568 5569 5570 5571 5573 5575 5577 5578 5580 5582 5584 5585 5587 5589 5591 5593 5596 5598 5601 5603 5606 5608 5610 5612 5614 5616 5617 5618 5620 5622
5562 5560 5559 5558 5556 5555 5553 5553 5552 5552 5552 5552 5553 5553 5554 5555 5556 5558 5560 5562 5563 5565 5567 5568 5570 5571 5573 5574 5576 5579 5582 5585 5587 5590 5592 5595 5596 5598 5600 5601 5603 5604 5605
5551 5549 5548 5546 5545 5543 5542 5541 5540 5539 5539 5539 5539 5540 5540 5541 5542 5544 5546 5547 5548 5550 5551 5552 5554 5555 5557 5558 5560 5563 5565 5568 5571 5573 5576 5579 5580 5583 5584 5586 5587 5588 5590
5540 5538 5537 5535 5533 5532 5530 5529 5527 5526 5526 5526 5526 5526 5527 5527 5528 5530 5530 5531 5532 5534 5535 5537 5538 5540 5541 5543 5544 5547 5549 5551 5554 5557 5559 5562 5564 5566 5568 5569 5571 5572 5573
5529 5527 5526 5524 5522 5520 5518 5516 5515 5513 5513 5513 5513 5513 5513 5514 5514 5515 5516 5516 5517 5518 5520 5521 5523 5524 5525 5527 5528 5530 5532 5535 5537 5540 5543 5546 5548 5550 5551 5553 5555 5556 5557
5518 5516 5514 5512 5510 5508 5506 5504 5502 5500 5500 5499 5499 5499 5500 5500 5500 5501 5501 5502 5502 5503 5504 5505 5507 5508 5509 5511 5512 5514 5516 5518 5521 5524 5527 5529 5531 5533 5535 5536 5538 5540 5541
5507 5505 5502 5500 5498 5495 5494 5492 5489 5487 5487 5486 5486 5486 5486 5486 5486 5486 5487 5487 5487 5488 5489 5490 5491 5493 5494 5495 5496 5498 5500 5503 5505 5508 5510 5513 5515 5517 5518 5520 5522 5523 5525
5496 5494 5491 5489 5486 5483 5481 5479 5477 5475 5474 5473 5473 5473 5472 5472 5472 5472 5472 5472 5473 5473 5474 5475 5476 5477 5479 5480 5481 5482 5484 5487 5489 5492 5494 5497 5499 5501 5503 5504 5506 5507 5508
5485 5482 5479 5477 5474 5471 5469 5467 5465 5464 5462 5461 5461 5460 5460 5459 5459 5458 5458 5458 5458 5458 5459 5460 5461 5462 5463 5465 5466 5467 5469 5471 5474 5476 5478 5481 5483 5485 5487 5489 5491 5492 5494
5474 5471 5468 5465 5462 5460 5457 5455 5454 5452 5451 5450 5449 5448 5447 5446 5446 5445 5444 5444 5444 5444 5444 5445 5446 5447 5449 5450 5451 5452 5454 5457 5459 5461 5463 5465 5468 5470 5472 5474 5476 5478 5479
5463 5460 5457 5454 5451 5449 5447 5445 5443 5442 5441 5440 5438 5437 5436 5434 5433 5433 5432 5431 5430 5430 5430 5431 5431 5433 5434 5435 5436 5438 5440 5442 5445 5447 5449 5451 5453 5454 5456 5458 5460 5463 5464
5453 5450 5447 5444 5441 5439 5437 5435 5433 5432 5431 5430 5428 5426 5425 5423 5422 5420 5419 5418 5417 5417 5417 5418 5418 5419 5420 5421 5422 5423 5425 5428 5430 5433 5435 5437 5438 5440 5441 5443 5445 5447 5449
5443 5440 5437 5435 5432 5429 5427 5426 5424 5423 5421 5420 5417 5416 5414 5412 5410 5409 5407 5406 5405 5404 5403 5403 5404 5404 5405 5406 5408 5410 5412 5414 5416 5419 5421 5422 5424 5425 5427 5429 5430 5431 5433
5433 5430 5428 5426 5423 5420 5418 5416 5415 5413 5412 5409 5407 5405 5403 5401 5399 5397 5395 5393 5392 5391 5390 5390 5391 5391 5392 5393 5395 5397 5399 5400 5402 5405 5406 5408 5409 5410 5413 5414 5415 5416 5418
5424 5421 5419 5416 5414 5412 5410 5408 5406 5404 5402 5400 5397 5395 5392 5390 5387 5385 5383 5381 5380 5378 5378 5377 5377 5378 5379 5380 5382 5384 5386 5387 5389 5391 5393 5394 5395 5396 5398 5400 5401 5402 5405
5415 5412 5410 5407 5405 5403 5401 5400 5398 5396 5393 5390 5387 5385 5382 5379 5377 5374 5372 5370 5368 5366 5365 5364 5364 5365 5366 5367 5369 5371 5373 5375 5377 5378 5380 5381 5382 5383 5385 5387 5388 5390 5392
5408 5405 5402 5399 5397 5395 5393 5391 5389 5387 5384 5381 5378 5374 5372 5369 5366 5364 5361 5358 5356 5354 5352 5352 5352 5352 5353 5354 5356 5357 5359 5361 5363 5365 5367 5368 5370 5372 5373 5375 5376 5378 5380